START_TIME,STEP,MOV.,M29,t_acc.,H22,t_acc.,H26,t_acc.,H30,t_acc.
1979-07-15 21:00:32.100 ,0,0,0.,24.0,0.,24.0,0.,24.0,0.,24.0
1979-07-15 21:00:56.100 ,0,1,0.,24.0,0.,24.0,0.,24.0,0.,24.0
1979-07-15 21:01:20.100 ,0,0,0.,24.0,0.,24.0,0.,24.0,0.,24.0
1979-07-15 21:01:44.100 ,1,1,0.,24.0,0.,24.0,0.,24.0,0.,24.0
1979-07-15 21:02:08.100 ,1,0,0.,24.0,0.,24.0,0.,24.0,0.,24.0
1979-07-15 21:02:32.100 ,2,1,0.,24.0,0.,24.0,0.,24.0,0.,24.0
1979-07-15 21:02:56.100 ,2,0,0.,24.0,0.,24.0,0.,24.0,0.,24.0
1979-07-15 21:03:20.100 ,3,1,0.,24.0,0.,24.0,0.,24.0,0.,24.0
1979-07-15 21:03:44.100 ,3,0,0.,24.0,0.,24.0,0.,24.0,0.,24.0
1979-07-15 21:04:08.100 ,4,1,0.,24.0,0.,24.0,0.,24.0,0.,24.0
1979-07-15 21:04:32.100 ,4,0,0.,24.0,0.,24.0,0.,24.0,0.,24.0
1979-07-15 21:04:56.100 ,5,1,0.,24.0,0.,24.0,0.,24.0,0.,24.0
1979-07-15 21:05:20.100 ,5,0,0.,24.0,0.,24.0,0.,24.0,0.,24.0
1979-07-15 21:05:44.100 ,6,1,0.,24.0,0.,24.0,0.,24.0,0.,24.0
1979-07-15 21:06:08.100 ,6,0,0.,24.0,0.,24.0,0.,24.0,0.,24.0
1979-07-15 21:06:32.100 ,7,0,0.,24.0,0.,24.0,0.,24.0,0.,24.0
1979-07-15 21:06:56.100 ,7,0,0.,24.0,0.,24.0,0.,24.0,0.,24.0
1979-07-15 21:07:20.100 ,5,1,0.,24.0,0.,24.0,0.,24.0,0.,24.0
1979-07-15 21:07:44.100 ,1,1,0.,24.0,0.,24.0,0.,24.0,0.,24.0
1979-07-15 21:08:08.100 ,2,1,0.,24.0,0.,24.0,0.,24.0,0.,24.0
1979-07-15 21:08:32.100 ,6,1,0.,24.0,0.,24.0,0.,24.0,0.,24.0
1979-07-15 21:08:56.100 ,5,1,0.,24.0,0.,24.0,0.,24.0,0.,24.0
1979-07-15 21:09:20.100 ,1,1,0.,24.0,0.,24.0,0.,24.0,0.,24.0
1979-07-15 21:09:44.100 ,2,1,0.,24.0,0.,24.0,0.,24.0,0.,24.0
1979-07-15 21:10:08.100 ,6,1,0.,24.0,0.,24.0,0.,24.0,0.,24.0
1979-07-15 21:10:32.100 ,5,1,0.,24.0,0.,24.0,0.,24.0,0.,24.0
1979-07-15 21:10:56.100 ,1,1,0.,24.0,0.,24.0,0.,24.0,0.,24.0
1979-07-15 21:11:20.100 ,2,1,0.,24.0,0.,24.0,0.,24.0,0.,24.0
1979-07-15 21:11:44.100 ,6,1,0.,24.0,0.,24.0,0.,24.0,0.,24.0
1979-07-15 21:12:08.100 ,5,1,0.,24.0,0.,24.0,0.,24.0,0.,24.0
1979-07-15 21:12:32.100 ,1,1,0.,24.0,0.,24.0,0.,24.0,0.,24.0
1979-07-15 21:12:56.100 ,2,1,0.,24.0,0.,24.0,0.,24.0,0.,24.0
1979-07-15 21:13:20.100 ,6,1,0.,24.0,0.,24.0,0.,24.0,0.,24.0
1979-07-15 21:13:44.100 ,5,1,0.,24.0,0.,24.0,0.,24.0,0.,24.0
1979-07-15 21:14:08.100 ,1,1,0.,24.0,0.,24.0,0.,24.0,0.,24.0
1979-07-15 21:14:32.100 ,2,1,0.,24.0,0.,24.0,0.,24.0,0.,24.0
1979-07-15 21:14:56.100 ,6,1,0.,24.0,0.,24.0,0.,24.0,0.,24.0
1979-07-15 21:15:20.100 ,5,1,0.,24.0,0.,24.0,0.,24.0,0.,24.0
1979-07-15 21:15:44.100 ,1,1,0.,24.0,0.,24.0,0.,24.0,0.,24.0
1979-07-15 21:16:08.100 ,2,1,0.,24.0,0.,24.0,0.,24.0,0.,24.0
1979-07-15 21:16:32.100 ,6,1,0.,24.0,0.,24.0,0.,24.0,0.,24.0
1979-07-15 21:16:56.100 ,5,1,0.,24.0,0.,24.0,0.,24.0,0.,24.0
1979-07-15 21:17:20.100 ,1,1,0.,24.0,0.,24.0,0.,24.0,0.,24.0
1979-07-15 21:17:44.100 ,0,0,0.,24.0,0.,24.0,0.,24.0,0.,24.0
1979-07-15 21:18:08.100 ,0,0,0.,24.0,0.,24.0,0.,24.0,0.,24.0
1979-07-15 21:18:32.100 ,5,1,0.,24.0,0.,24.0,0.,24.0,0.,24.0
1979-07-15 21:18:56.100 ,5,0,0.,24.0,0.,24.0,0.,24.0,0.,24.0
1979-07-15 21:19:20.100 ,4,1,0.,24.0,0.,24.0,0.,24.0,0.,24.0
1979-07-15 21:19:44.100 ,4,0,0.,24.0,0.,24.0,0.,24.0,0.,24.0
1979-07-15 21:20:08.100 ,3,1,0.,24.0,0.,24.0,0.,24.0,0.,24.0
1979-07-15 21:20:32.100 ,3,0,0.,24.0,0.,24.0,0.,24.0,0.,24.0
1979-07-15 21:20:56.100 ,2,1,0.,24.0,0.,24.0,0.,24.0,0.,24.0
1979-07-15 21:21:20.100 ,2,0,0.,24.0,0.,24.0,0.,24.0,0.,24.0
1979-07-15 21:21:44.100 ,1,1,0.,24.0,0.,24.0,0.,24.0,0.,24.0
1979-07-15 21:22:08.100 ,1,0,0.,24.0,0.,24.0,0.,24.0,0.,24.0
1979-07-15 21:22:32.100 ,0,1,0.,24.0,0.,24.0,0.,24.0,0.,24.0
1979-07-15 21:22:56.100 ,0,0,0.,24.0,0.,24.0,0.,24.0,0.,24.0
1979-07-15 21:23:20.100 ,0,1,0.,24.0,0.,24.0,0.,24.0,0.,24.0
1979-07-15 21:23:44.100 ,0,0,0.,24.0,0.,24.0,0.,24.0,0.,24.0
1979-07-15 21:24:08.100 ,1,1,0.,24.0,0.,24.0,0.,24.0,0.,24.0
1979-07-15 21:24:32.100 ,1,0,0.,24.0,0.,24.0,0.,24.0,0.,24.0
1979-07-15 21:24:56.100 ,2,1,0.,24.0,0.,24.0,0.,24.0,0.,24.0
1979-07-15 21:25:20.100 ,2,0,0.,24.0,0.,24.0,0.,24.0,0.,24.0
1979-07-15 21:25:44.100 ,3,1,0.,24.0,0.,24.0,0.,24.0,0.,24.0
1979-07-15 21:26:08.100 ,3,0,0.,24.0,0.,24.0,0.,24.0,0.,24.0
1979-07-15 21:26:32.100 ,4,1,0.,24.0,0.,24.0,0.,24.0,0.,24.0
1979-07-15 21:26:56.100 ,4,0,0.,24.0,0.,24.0,0.,24.0,0.,24.0
1979-07-15 21:27:20.100 ,5,1,0.,24.0,0.,24.0,0.,24.0,0.,24.0
1979-07-15 21:27:44.100 ,5,0,0.,24.0,0.,24.0,0.,24.0,0.,24.0
1979-07-15 21:28:08.100 ,6,1,0.,24.0,0.,24.0,0.,24.0,0.,24.0
1979-07-15 21:28:32.100 ,6,0,0.,24.0,0.,24.0,0.,24.0,0.,24.0
1979-07-15 21:28:56.100 ,7,1,0.,24.0,0.,24.0,0.,24.0,0.,24.0
1979-07-15 21:29:20.100 ,7,0,0.,24.0,0.,24.0,0.,24.0,0.,24.0
1979-07-15 21:29:44.100 ,7,1,0.,24.0,0.,24.0,0.,24.0,0.,24.0
1979-07-15 21:30:08.100 ,7,0,0.,24.0,0.,24.0,0.,24.0,0.,24.0
1979-07-15 21:30:32.100 ,6,1,0.,24.0,0.,24.0,0.,24.0,0.,24.0
1979-07-15 21:30:56.100 ,6,0,0.,24.0,0.,24.0,0.,24.0,0.,24.0
1979-07-15 21:31:20.100 ,5,1,0.,24.0,0.,24.0,0.,24.0,0.,24.0
1979-07-15 21:31:44.100 ,5,0,0.,24.0,0.,24.0,0.,24.0,0.,24.0
1979-07-15 21:32:08.100 ,4,1,0.,24.0,0.,24.0,0.,24.0,0.,24.0
1979-07-15 21:32:32.100 ,4,0,0.,24.0,0.,24.0,0.,24.0,0.,24.0
1979-07-15 21:32:56.100 ,3,1,0.,24.0,0.,24.0,0.,24.0,0.,24.0
1979-07-15 21:33:20.100 ,3,0,0.,24.0,0.,24.0,0.,24.0,0.,24.0
1979-07-15 21:33:44.100 ,2,1,0.,24.0,0.,24.0,0.,24.0,0.,24.0
1979-07-15 21:34:08.100 ,2,0,0.,24.0,0.,24.0,0.,24.0,0.,24.0
1979-07-15 21:34:32.100 ,1,1,0.,24.0,0.,24.0,0.,24.0,0.,24.0
1979-07-15 21:34:56.100 ,1,0,0.,24.0,0.,24.0,0.,24.0,0.,24.0
1979-07-15 21:35:20.100 ,0,1,0.,24.0,0.,24.0,0.,24.0,0.,24.0
1979-07-15 21:35:44.100 ,0,0,0.,24.0,0.,24.0,0.,24.0,0.,24.0
1979-07-15 21:36:08.100 ,0,1,0.,24.0,0.,24.0,0.,24.0,0.,24.0
1979-07-15 21:36:32.100 ,0,0,0.,24.0,0.,24.0,0.,24.0,0.,24.0
1979-07-15 21:36:56.100 ,1,1,0.,24.0,0.,24.0,0.,24.0,0.,24.0
1979-07-15 21:37:20.100 ,1,0,0.,24.0,0.,24.0,0.,24.0,0.,24.0
1979-07-15 21:37:44.100 ,2,1,0.,24.0,0.,24.0,0.,24.0,0.,24.0
1979-07-15 21:38:08.100 ,2,0,0.,24.0,0.,24.0,0.,24.0,0.,24.0
1979-07-15 21:38:32.100 ,3,1,0.,24.0,0.,24.0,0.,24.0,0.,24.0
1979-07-15 21:38:56.100 ,3,0,0.,24.0,0.,24.0,0.,24.0,0.,24.0
1979-07-15 21:39:20.100 ,4,1,0.,24.0,0.,24.0,0.,24.0,0.,24.0
1979-07-15 21:39:44.100 ,4,0,0.,24.0,0.,24.0,0.,24.0,0.,24.0
1979-07-15 21:40:08.100 ,5,1,0.,24.0,0.,24.0,0.,24.0,0.,24.0
1979-07-15 21:40:32.100 ,5,0,0.,24.0,0.,24.0,0.,24.0,0.,24.0
1979-07-15 21:40:56.100 ,6,1,0.,24.0,0.,24.0,0.,24.0,0.,24.0
1979-07-15 21:41:20.100 ,6,0,0.,24.0,0.,24.0,0.,24.0,0.,24.0
1979-07-15 21:41:44.100 ,7,1,0.,24.0,0.,24.0,0.,24.0,0.,24.0
1979-07-15 21:42:08.100 ,7,0,0.,24.0,0.,24.0,0.,24.0,0.,24.0
1979-07-15 21:42:32.100 ,7,1,0.,24.0,0.,24.0,0.,24.0,0.,24.0
1979-07-15 21:42:56.100 ,7,0,0.,24.0,0.,24.0,0.,24.0,0.,24.0
1979-07-15 21:43:20.100 ,6,1,0.,24.0,0.,24.0,0.,24.0,0.,24.0
1979-07-15 21:43:44.100 ,6,0,0.,24.0,0.,24.0,0.,24.0,0.,24.0
1979-07-15 21:44:08.100 ,5,1,0.,24.0,0.,24.0,0.,24.0,0.,24.0
1979-07-15 21:44:32.100 ,5,0,0.,24.0,0.,24.0,0.,24.0,0.,24.0
1979-07-15 21:44:56.100 ,4,1,0.,24.0,0.,24.0,0.,24.0,0.,24.0
1979-07-15 21:45:20.100 ,4,0,0.,24.0,0.,24.0,0.,24.0,0.,24.0
1979-07-15 21:45:44.100 ,3,1,0.,24.0,0.,24.0,0.,24.0,0.,24.0
1979-07-15 21:46:08.100 ,3,0,0.,24.0,0.,24.0,0.,24.0,0.,24.0
1979-07-15 21:46:32.100 ,2,1,0.,24.0,0.,24.0,0.,24.0,0.,24.0
1979-07-15 21:46:56.100 ,2,0,0.,24.0,0.,24.0,0.,24.0,0.,24.0
1979-07-15 21:47:20.100 ,1,1,0.,24.0,0.,24.0,0.,24.0,0.,24.0
1979-07-15 21:47:44.100 ,1,0,0.,24.0,0.,24.0,0.,24.0,0.,24.0
1979-07-15 21:48:08.100 ,0,1,0.,24.0,0.,24.0,0.,24.0,0.,24.0
1979-07-15 21:48:32.100 ,0,0,0.,24.0,0.,24.0,0.,24.0,0.,24.0
1979-07-15 21:48:56.100 ,0,1,0.,24.0,0.,24.0,0.,24.0,0.,24.0
1979-07-15 21:49:20.100 ,0,0,0.,24.0,0.,24.0,0.,24.0,0.,24.0
1979-07-15 21:49:44.100 ,1,1,0.,24.0,0.,24.0,0.,24.0,0.,24.0
1979-07-15 21:50:08.100 ,1,0,0.,24.0,0.,24.0,0.,24.0,0.,24.0
1979-07-15 21:50:32.100 ,2,1,0.,24.0,0.,24.0,0.,24.0,0.,24.0
1979-07-15 21:50:56.100 ,2,0,0.,24.0,0.,24.0,0.,24.0,0.,24.0
1979-07-15 21:51:20.100 ,3,1,0.,24.0,0.,24.0,0.,24.0,0.,24.0
1979-07-15 21:51:44.100 ,3,0,0.,24.0,0.,24.0,0.,24.0,0.,24.0
1979-07-15 21:52:08.100 ,4,1,0.,24.0,0.,24.0,0.,24.0,0.,24.0
1979-07-15 21:52:32.100 ,4,0,0.,24.0,0.,24.0,0.,24.0,0.,24.0
1979-07-15 21:52:56.100 ,5,1,0.,24.0,0.,24.0,0.,24.0,0.,24.0
1979-07-15 21:53:20.100 ,5,0,0.,24.0,0.,24.0,0.,24.0,0.,24.0
1979-07-15 21:53:44.100 ,6,1,0.,24.0,0.,24.0,0.,24.0,0.,24.0
1979-07-15 21:54:08.100 ,6,0,0.,24.0,0.,24.0,0.,24.0,0.,24.0
1979-07-15 21:54:32.100 ,7,0,0.,24.0,0.,24.0,0.,24.0,0.,24.0
1979-07-15 21:54:56.100 ,7,0,0.,24.0,0.,24.0,0.,24.0,0.,24.0
1979-07-15 21:55:20.100 ,5,1,0.,24.0,0.,24.0,0.,24.0,0.,24.0
1979-07-15 21:55:44.100 ,1,1,0.,24.0,0.,24.0,0.,24.0,0.,24.0
1979-07-15 21:56:08.100 ,2,1,0.,24.0,0.,24.0,0.,24.0,0.,24.0
1979-07-15 21:56:32.100 ,6,1,0.,24.0,0.,24.0,0.,24.0,0.,24.0
1979-07-15 21:56:56.100 ,5,1,0.,24.0,0.,24.0,0.,24.0,0.,24.0
1979-07-15 21:57:20.100 ,1,1,0.,24.0,0.,24.0,0.,24.0,0.,24.0
1979-07-15 21:57:44.100 ,2,1,0.,24.0,0.,24.0,0.,24.0,0.,24.0
1979-07-15 21:58:08.100 ,6,1,0.,24.0,0.,24.0,0.,24.0,0.,24.0
1979-07-15 21:58:32.100 ,5,1,0.,24.0,0.,24.0,0.,24.0,0.,24.0
1979-07-15 21:58:56.100 ,1,1,0.,24.0,0.,24.0,0.,24.0,0.,24.0
1979-07-15 21:59:20.100 ,2,1,0.,24.0,0.,24.0,0.,24.0,0.,24.0
1979-07-15 21:59:44.100 ,6,1,0.,24.0,0.,24.0,0.,24.0,0.,24.0
1979-07-15 22:00:08.100 ,5,1,0.,24.0,0.,24.0,0.,24.0,0.,24.0
1979-07-15 22:00:32.100 ,1,1,0.,24.0,0.,24.0,0.,24.0,0.,24.0
1979-07-15 22:00:56.100 ,2,1,0.,24.0,0.,24.0,0.,24.0,0.,24.0
1979-07-15 22:01:20.100 ,6,1,0.,24.0,0.,24.0,0.,24.0,0.,24.0
1979-07-15 22:01:44.100 ,5,1,0.,24.0,0.,24.0,0.,24.0,0.,24.0
1979-07-15 22:02:08.100 ,1,1,0.,24.0,0.,24.0,0.,24.0,0.,24.0
1979-07-15 22:02:32.100 ,2,1,0.,24.0,0.,24.0,0.,24.0,0.,24.0
1979-07-15 22:02:56.100 ,6,1,0.,24.0,0.,24.0,0.,24.0,0.,24.0
1979-07-15 22:03:20.100 ,5,1,0.,24.0,0.,24.0,0.,24.0,0.,24.0
1979-07-15 22:03:44.100 ,1,1,0.,24.0,0.,24.0,0.,24.0,0.,24.0
1979-07-15 22:04:08.100 ,2,1,0.,24.0,0.,24.0,0.,24.0,0.,24.0
1979-07-15 22:04:32.100 ,6,1,0.,24.0,0.,24.0,0.,24.0,0.,24.0
1979-07-15 22:04:56.100 ,5,1,0.,24.0,0.,24.0,0.,24.0,0.,24.0
1979-07-15 22:05:20.100 ,1,1,0.,24.0,0.,24.0,0.,24.0,0.,24.0
1979-07-15 22:05:44.100 ,0,0,0.,24.0,0.,24.0,0.,24.0,0.,24.0
1979-07-15 22:06:08.100 ,0,0,0.,24.0,0.,24.0,0.,24.0,0.,24.0
1979-07-15 22:06:32.100 ,5,1,0.,24.0,0.,24.0,0.,24.0,0.,24.0
1979-07-15 22:06:56.100 ,5,0,0.,24.0,0.,24.0,0.,24.0,0.,24.0
1979-07-15 22:07:20.100 ,4,1,0.,24.0,0.,24.0,0.,24.0,0.,24.0
1979-07-15 22:07:44.100 ,4,0,0.,24.0,0.,24.0,0.,24.0,0.,24.0
1979-07-15 22:08:08.100 ,3,1,0.,24.0,0.,24.0,0.,24.0,0.,24.0
1979-07-15 22:08:32.100 ,0,0,0.,24.0,0.,24.0,0.,24.0,0.,24.0
1979-07-15 22:08:56.100 ,2,1,0.,24.0,0.,24.0,0.,24.0,0.,24.0
1979-07-15 22:09:20.100 ,2,0,0.,24.0,0.,24.0,0.,24.0,0.,24.0
1979-07-15 22:09:44.100 ,1,1,0.,24.0,0.,24.0,0.,24.0,0.,24.0
1979-07-15 22:10:08.100 ,1,0,0.,24.0,0.,24.0,0.,24.0,0.,24.0
1979-07-15 22:10:32.100 ,0,1,0.,24.0,0.,24.0,0.,24.0,0.,24.0
1979-07-15 22:10:56.100 ,0,0,0.,24.0,0.,24.0,0.,24.0,0.,24.0
1979-07-15 22:11:20.100 ,0,1,0.,24.0,0.,24.0,0.,24.0,0.,24.0
1979-07-15 22:11:44.100 ,0,0,0.,24.0,0.,24.0,0.,24.0,0.,24.0
1979-07-15 22:12:08.100 ,1,1,0.,24.0,0.,24.0,0.,24.0,0.,24.0
1979-07-15 22:12:32.100 ,1,0,0.,24.0,0.,24.0,0.,24.0,0.,24.0
1979-07-15 22:12:56.100 ,2,1,0.,24.0,0.,24.0,0.,24.0,0.,24.0
1979-07-15 22:13:20.100 ,2,0,0.,24.0,0.,24.0,0.,24.0,0.,24.0
1979-07-15 22:13:44.100 ,3,1,0.,24.0,0.,24.0,0.,24.0,0.,24.0
1979-07-15 22:14:08.100 ,3,0,0.,24.0,0.,24.0,0.,24.0,0.,24.0
1979-07-15 22:14:32.100 ,4,1,0.,24.0,0.,24.0,0.,24.0,0.,24.0
1979-07-15 22:14:56.100 ,4,0,0.,24.0,0.,24.0,0.,24.0,0.,24.0
1979-07-15 22:15:20.100 ,5,1,0.,24.0,0.,24.0,0.,24.0,0.,24.0
1979-07-15 22:15:44.100 ,0,0,0.,24.0,0.,24.0,0.,24.0,0.,24.0
1979-07-15 22:16:08.100 ,6,1,0.,24.0,0.,24.0,0.,24.0,0.,24.0
1979-07-15 22:16:32.100 ,6,0,0.,24.0,0.,24.0,0.,24.0,0.,24.0
1979-07-15 22:16:56.100 ,7,1,0.,24.0,0.,24.0,0.,24.0,0.,24.0
1979-07-15 22:17:44.100 ,7,1,0.,24.0,0.,24.0,0.,24.0,0.,24.0
1979-07-15 22:18:08.100 ,7,0,0.,24.0,0.,24.0,0.,24.0,0.,24.0
1979-07-15 22:18:32.100 ,6,1,0.,24.0,0.,24.0,0.,24.0,0.,24.0
1979-07-15 22:18:56.100 ,6,0,0.,24.0,0.,24.0,0.,24.0,0.,24.0
1979-07-15 22:19:20.100 ,5,1,0.,24.0,0.,24.0,0.,24.0,0.,24.0
1979-07-15 22:19:44.100 ,5,0,0.,24.0,0.,24.0,0.,24.0,0.,24.0
1979-07-15 22:20:08.100 ,4,1,0.,24.0,0.,24.0,0.,24.0,0.,24.0
1979-07-15 22:20:32.100 ,4,0,0.,24.0,0.,24.0,0.,24.0,0.,24.0
1979-07-15 22:20:56.100 ,3,1,0.,24.0,0.,24.0,0.,24.0,0.,24.0
1979-07-15 22:21:20.100 ,3,0,0.,24.0,0.,24.0,0.,24.0,0.,24.0
1979-07-15 22:21:44.100 ,2,1,0.,24.0,0.,24.0,0.,24.0,0.,24.0
1979-07-15 22:22:08.100 ,2,0,0.,24.0,0.,24.0,0.,24.0,0.,24.0
1979-07-15 22:22:32.100 ,1,1,0.,24.0,0.,24.0,0.,24.0,0.,24.0
1979-07-15 22:22:56.100 ,1,0,0.,24.0,0.,24.0,0.,24.0,0.,24.0
1979-07-15 22:23:20.100 ,0,1,0.,24.0,0.,24.0,0.,24.0,0.,24.0
1979-07-15 22:23:44.100 ,0,0,0.,24.0,0.,24.0,0.,24.0,0.,24.0
1979-07-15 22:24:08.100 ,0,1,0.,24.0,0.,24.0,0.,24.0,0.,24.0
1979-07-15 22:24:32.100 ,0,0,0.,24.0,0.,24.0,0.,24.0,0.,24.0
1979-07-15 22:24:56.100 ,1,1,0.,24.0,0.,24.0,0.,24.0,0.,24.0
1979-07-15 22:25:44.100 ,2,1,0.,24.0,0.,24.0,0.,24.0,0.,24.0
1979-07-15 22:26:08.100 ,2,0,0.,24.0,0.,24.0,0.,24.0,0.,24.0
1979-07-15 22:26:32.100 ,3,1,0.,24.0,0.,24.0,0.,24.0,0.,24.0
1979-07-15 22:26:56.100 ,3,0,0.,24.0,0.,24.0,0.,24.0,0.,24.0
1979-07-15 22:27:20.100 ,4,1,0.,24.0,0.,24.0,0.,24.0,0.,24.0
1979-07-15 22:27:44.100 ,4,0,0.,24.0,0.,24.0,0.,24.0,0.,24.0
1979-07-15 22:28:08.100 ,5,1,0.,24.0,0.,24.0,0.,24.0,0.,24.0
1979-07-15 22:28:32.100 ,5,0,0.,24.0,0.,24.0,0.,24.0,0.,24.0
1979-07-15 22:28:56.100 ,6,1,0.,24.0,0.,24.0,0.,24.0,0.,24.0
1979-07-15 22:29:20.100 ,6,0,0.,24.0,0.,24.0,0.,24.0,0.,24.0
1979-07-15 22:29:44.100 ,7,1,0.,24.0,0.,24.0,0.,24.0,0.,24.0
1979-07-15 22:30:08.100 ,7,0,0.,24.0,0.,24.0,0.,24.0,0.,24.0
1979-07-15 22:30:32.100 ,7,1,0.,24.0,0.,24.0,0.,24.0,0.,24.0
1979-07-15 22:30:56.100 ,7,0,0.,24.0,0.,24.0,0.,24.0,0.,24.0
1979-07-15 22:31:20.100 ,6,1,0.,24.0,0.,24.0,0.,24.0,0.,24.0
1979-07-15 22:31:44.100 ,6,0,0.,24.0,0.,24.0,0.,24.0,0.,24.0
1979-07-15 22:32:08.100 ,5,1,0.,24.0,0.,24.0,0.,24.0,0.,24.0
1979-07-15 22:32:32.100 ,5,0,0.,24.0,0.,24.0,0.,24.0,0.,24.0
1979-07-15 22:32:56.100 ,4,1,0.,24.0,0.,24.0,0.,24.0,0.,24.0
1979-07-15 22:33:20.100 ,4,0,0.,24.0,0.,24.0,0.,24.0,0.,24.0
1979-07-15 22:33:44.100 ,3,1,0.,24.0,0.,24.0,0.,24.0,0.,24.0
1979-07-15 22:34:08.100 ,3,0,0.,24.0,0.,24.0,0.,24.0,0.,24.0
1979-07-15 22:34:32.100 ,2,1,0.,24.0,0.,24.0,0.,24.0,0.,24.0
1979-07-15 22:34:56.100 ,2,0,0.,24.0,0.,24.0,0.,24.0,0.,24.0
1979-07-15 22:35:20.100 ,1,1,0.,24.0,0.,24.0,0.,24.0,0.,24.0
1979-07-15 22:35:44.100 ,1,0,0.,24.0,0.,24.0,0.,24.0,0.,24.0
1979-07-15 22:36:08.100 ,0,1,0.,24.0,0.,24.0,0.,24.0,0.,24.0
1979-07-15 22:36:32.100 ,0,0,0.,24.0,0.,24.0,0.,24.0,0.,24.0
1979-07-15 22:36:56.100 ,0,1,0.,24.0,0.,24.0,0.,24.0,0.,24.0
1979-07-15 22:37:20.100 ,0,0,0.,24.0,0.,24.0,0.,24.0,0.,24.0
1979-07-15 22:37:44.100 ,1,1,0.,24.0,0.,24.0,0.,24.0,0.,24.0
1979-07-15 22:38:08.100 ,1,0,0.,24.0,0.,24.0,0.,24.0,0.,24.0
1979-07-15 22:38:32.100 ,2,1,0.,24.0,0.,24.0,0.,24.0,0.,24.0
1979-07-15 22:38:56.100 ,2,0,0.,24.0,0.,24.0,0.,24.0,0.,24.0
1979-07-15 22:39:20.100 ,3,1,0.,24.0,0.,24.0,0.,24.0,0.,24.0
1979-07-15 22:39:44.100 ,3,0,0.,24.0,0.,24.0,0.,24.0,0.,24.0
1979-07-15 22:40:08.100 ,4,1,0.,24.0,0.,24.0,0.,24.0,0.,24.0
1979-07-15 22:40:32.100 ,4,0,0.,24.0,0.,24.0,0.,24.0,0.,24.0
1979-07-15 22:40:56.100 ,5,1,0.,24.0,0.,24.0,0.,24.0,0.,24.0
1979-07-15 22:41:20.100 ,5,0,0.,24.0,0.,24.0,0.,24.0,0.,24.0
1979-07-15 22:41:44.100 ,6,1,0.,24.0,0.,24.0,0.,24.0,0.,24.0
1979-07-15 22:42:08.100 ,6,0,0.,24.0,0.,24.0,0.,24.0,0.,24.0
1979-07-15 22:42:32.100 ,7,0,0.,24.0,0.,24.0,0.,24.0,0.,24.0
1979-07-15 22:42:56.100 ,7,0,0.,24.0,0.,24.0,0.,24.0,0.,24.0
1979-07-15 22:43:20.100 ,5,1,0.,24.0,0.,24.0,0.,24.0,0.,24.0
1979-07-15 22:43:44.100 ,1,1,0.,24.0,0.,24.0,0.,24.0,0.,24.0
1979-07-15 22:44:08.100 ,2,1,0.,24.0,0.,24.0,0.,24.0,0.,24.0
1979-07-15 22:44:32.100 ,6,1,0.,24.0,0.,24.0,0.,24.0,0.,24.0
1979-07-15 22:44:56.100 ,5,1,0.,24.0,0.,24.0,0.,24.0,0.,24.0
1979-07-15 22:45:20.100 ,1,1,0.,24.0,0.,24.0,0.,24.0,0.,24.0
1979-07-15 22:45:44.100 ,2,1,0.,24.0,0.,24.0,0.,24.0,0.,24.0
1979-07-15 22:46:08.100 ,6,1,0.,24.0,0.,24.0,0.,24.0,0.,24.0
1979-07-15 22:46:32.100 ,5,1,0.,24.0,0.,24.0,0.,24.0,0.,24.0
1979-07-15 22:46:56.100 ,1,1,0.,24.0,0.,24.0,0.,24.0,0.,24.0
1979-07-15 22:47:20.100 ,2,1,0.,24.0,0.,24.0,0.,24.0,0.,24.0
1979-07-15 22:47:44.100 ,6,1,0.,24.0,0.,24.0,0.,24.0,0.,24.0
1979-07-15 22:48:08.100 ,5,1,0.,24.0,0.,24.0,0.,24.0,0.,24.0
1979-07-15 22:48:32.100 ,1,1,0.,24.0,0.,24.0,0.,24.0,0.,24.0
1979-07-15 22:48:56.100 ,2,1,0.,24.0,0.,24.0,0.,24.0,0.,24.0
1979-07-15 22:49:20.100 ,6,1,0.,24.0,0.,24.0,0.,24.0,0.,24.0
1979-07-15 22:49:44.100 ,5,1,0.,24.0,0.,24.0,0.,24.0,0.,24.0
1979-07-15 22:50:08.100 ,1,1,0.,24.0,0.,24.0,0.,24.0,0.,24.0
1979-07-15 22:50:32.100 ,2,1,0.,24.0,0.,24.0,0.,24.0,0.,24.0
1979-07-15 22:51:20.100 ,5,1,0.,24.0,0.,24.0,0.,24.0,0.,24.0
1979-07-15 22:51:44.100 ,1,1,0.,24.0,0.,24.0,0.,24.0,0.,24.0
1979-07-15 22:52:08.100 ,2,1,0.,24.0,0.,24.0,0.,24.0,0.,24.0
1979-07-15 22:52:32.100 ,6,1,0.,24.0,0.,24.0,0.,24.0,0.,24.0
1979-07-15 22:52:56.100 ,5,1,0.,24.0,0.,24.0,0.,24.0,0.,24.0
1979-07-15 22:53:20.100 ,1,1,0.,24.0,0.,24.0,0.,24.0,0.,24.0
1979-07-15 22:53:44.100 ,0,0,0.,24.0,0.,24.0,0.,24.0,0.,24.0
1979-07-15 22:54:08.100 ,0,0,0.,24.0,0.,24.0,0.,24.0,0.,24.0
1979-07-15 22:54:32.100 ,5,1,0.,24.0,0.,24.0,0.,24.0,0.,24.0
1979-07-15 22:54:56.100 ,5,0,0.,24.0,0.,24.0,0.,24.0,0.,24.0
1979-07-15 22:55:20.100 ,4,1,0.,24.0,0.,24.0,0.,24.0,0.,24.0
1979-07-15 22:55:44.100 ,4,0,0.,24.0,0.,24.0,0.,24.0,0.,24.0
1979-07-15 22:56:08.100 ,3,1,0.,24.0,0.,24.0,0.,24.0,0.,24.0
1979-07-15 22:56:32.100 ,3,0,0.,24.0,0.,24.0,0.,24.0,0.,24.0
1979-07-15 22:56:56.100 ,2,1,0.,24.0,0.,24.0,0.,24.0,0.,24.0
1979-07-15 22:57:20.100 ,2,0,0.,24.0,0.,24.0,0.,24.0,0.,24.0
1979-07-15 22:57:44.100 ,1,1,0.,24.0,0.,24.0,0.,24.0,0.,24.0
1979-07-15 22:58:08.100 ,1,0,0.,24.0,0.,24.0,0.,24.0,0.,24.0
1979-07-15 22:58:32.100 ,0,1,0.,24.0,0.,24.0,0.,24.0,0.,24.0
1979-07-15 22:58:56.100 ,0,0,0.,24.0,0.,24.0,0.,24.0,0.,24.0
1979-07-15 22:59:20.100 ,0,1,0.,24.0,0.,24.0,0.,24.0,0.,24.0
1979-07-15 22:59:44.100 ,0,0,0.,24.0,0.,24.0,0.,24.0,0.,24.0
1979-07-15 23:00:08.100 ,1,1,0.,24.0,0.,24.0,0.,24.0,0.,24.0
1979-07-15 23:00:32.100 ,1,0,0.,24.0,0.,24.0,0.,24.0,0.,24.0
1979-07-15 23:00:56.100 ,2,1,0.,24.0,0.,24.0,0.,24.0,0.,24.0
1979-07-15 23:01:20.100 ,2,0,0.,24.0,0.,24.0,0.,24.0,0.,24.0
1979-07-15 23:01:44.100 ,3,1,0.,24.0,0.,24.0,0.,24.0,0.,24.0
1979-07-15 23:02:08.100 ,3,0,0.,24.0,0.,24.0,0.,24.0,0.,24.0
1979-07-15 23:02:32.100 ,4,1,0.,24.0,0.,24.0,0.,24.0,0.,24.0
1979-07-15 23:02:56.100 ,4,0,0.,24.0,0.,24.0,0.,24.0,0.,24.0
1979-07-15 23:03:20.100 ,5,1,0.,24.0,0.,24.0,0.,24.0,0.,24.0
1979-07-15 23:03:44.100 ,5,0,0.,24.0,0.,24.0,0.,24.0,0.,24.0
1979-07-15 23:04:08.100 ,6,1,0.,24.0,0.,24.0,0.,24.0,0.,24.0
1979-07-15 23:04:32.100 ,6,0,0.,24.0,0.,24.0,0.,24.0,0.,24.0
1979-07-15 23:04:56.100 ,7,1,0.,24.0,0.,24.0,0.,24.0,0.,24.0
1979-07-15 23:05:20.100 ,7,0,0.,24.0,0.,24.0,0.,24.0,0.,24.0
1979-07-15 23:05:44.100 ,7,1,0.,24.0,0.,24.0,0.,24.0,0.,24.0
1979-07-15 23:06:08.100 ,7,0,0.,24.0,0.,24.0,0.,24.0,0.,24.0
1979-07-15 23:06:32.100 ,6,1,0.,24.0,0.,24.0,0.,24.0,0.,24.0
1979-07-15 23:06:56.100 ,6,0,0.,24.0,0.,24.0,0.,24.0,0.,24.0
1979-07-15 23:07:20.100 ,5,1,0.,24.0,0.,24.0,0.,24.0,0.,24.0
1979-07-15 23:07:44.100 ,5,0,0.,24.0,0.,24.0,0.,24.0,0.,24.0
1979-07-15 23:08:08.100 ,0,0,0.,24.0,0.,24.0,0.,24.0,0.,24.0
1979-07-15 23:08:32.100 ,0,0,0.,24.0,0.,24.0,0.,24.0,0.,24.0
1979-07-15 23:09:20.100 ,3,0,0.,24.0,0.,24.0,0.,24.0,0.,24.0
1979-07-15 23:09:44.100 ,2,1,0.,24.0,0.,24.0,0.,24.0,0.,24.0
1979-07-15 23:10:08.100 ,2,0,0.,24.0,0.,24.0,0.,24.0,0.,24.0
1979-07-15 23:10:32.100 ,1,1,0.,24.0,0.,24.0,0.,24.0,0.,24.0
1979-07-15 23:10:56.100 ,1,0,0.,24.0,0.,24.0,0.,24.0,0.,24.0
1979-07-15 23:11:20.100 ,0,1,0.,24.0,0.,24.0,0.,24.0,0.,24.0
1979-07-15 23:11:44.100 ,0,0,0.,24.0,0.,24.0,0.,24.0,0.,24.0
1979-07-15 23:12:08.100 ,0,1,0.,24.0,0.,24.0,0.,24.0,0.,24.0
1979-07-15 23:12:32.100 ,0,0,0.,24.0,0.,24.0,0.,24.0,0.,24.0
1979-07-15 23:12:56.100 ,1,1,0.,24.0,0.,24.0,0.,24.0,0.,24.0
1979-07-15 23:13:20.100 ,1,0,0.,24.0,0.,24.0,0.,24.0,0.,24.0
1979-07-15 23:13:44.100 ,2,1,0.,24.0,0.,24.0,0.,24.0,0.,24.0
1979-07-15 23:14:08.100 ,2,0,0.,24.0,0.,24.0,0.,24.0,0.,24.0
1979-07-15 23:14:32.100 ,3,1,0.,24.0,0.,24.0,0.,24.0,0.,24.0
1979-07-15 23:14:56.100 ,3,0,0.,24.0,0.,24.0,0.,24.0,0.,24.0
1979-07-15 23:15:20.100 ,4,1,0.,24.0,0.,24.0,0.,24.0,0.,24.0
1979-07-15 23:15:44.100 ,4,0,0.,24.0,0.,24.0,0.,24.0,0.,24.0
1979-07-15 23:16:08.100 ,5,1,0.,24.0,0.,24.0,0.,24.0,0.,24.0
1979-07-15 23:16:32.100 ,5,0,0.,24.0,0.,24.0,0.,24.0,0.,24.0
1979-07-15 23:16:56.100 ,6,1,0.,24.0,0.,24.0,0.,24.0,0.,24.0
1979-07-15 23:17:20.100 ,6,0,0.,24.0,0.,24.0,0.,24.0,0.,24.0
1979-07-15 23:17:44.100 ,7,1,0.,24.0,0.,24.0,0.,24.0,0.,24.0
1979-07-15 23:18:08.100 ,7,0,0.,24.0,0.,24.0,0.,24.0,0.,24.0
1979-07-15 23:18:32.100 ,7,1,0.,24.0,0.,24.0,0.,24.0,0.,24.0
1979-07-15 23:18:56.100 ,7,0,0.,24.0,0.,24.0,0.,24.0,0.,24.0
1979-07-15 23:19:20.100 ,6,1,0.,24.0,0.,24.0,0.,24.0,0.,24.0
1979-07-15 23:19:44.100 ,6,0,0.,24.0,0.,24.0,0.,24.0,0.,24.0
1979-07-15 23:20:08.100 ,5,1,0.,24.0,0.,24.0,0.,24.0,0.,24.0
1979-07-15 23:20:32.100 ,5,0,0.,24.0,0.,24.0,0.,24.0,0.,24.0
1979-07-15 23:20:56.100 ,4,1,0.,24.0,0.,24.0,0.,24.0,0.,24.0
1979-07-15 23:21:20.100 ,4,0,0.,24.0,0.,24.0,0.,24.0,0.,24.0
1979-07-15 23:21:44.100 ,3,1,0.,24.0,0.,24.0,0.,24.0,0.,24.0
1979-07-15 23:22:08.100 ,3,0,0.,24.0,0.,24.0,0.,24.0,0.,24.0
1979-07-15 23:22:32.100 ,2,1,0.,24.0,0.,24.0,0.,24.0,0.,24.0
1979-07-15 23:22:56.100 ,2,0,0.,24.0,0.,24.0,0.,24.0,0.,24.0
1979-07-15 23:23:20.100 ,1,1,0.,24.0,0.,24.0,0.,24.0,0.,24.0
1979-07-15 23:23:44.100 ,1,0,0.,24.0,0.,24.0,0.,24.0,0.,24.0
1979-07-15 23:24:08.100 ,0,1,0.,24.0,0.,24.0,0.,24.0,0.,24.0
1979-07-15 23:24:32.100 ,0,0,0.,24.0,0.,24.0,0.,24.0,0.,24.0
1979-07-15 23:24:56.100 ,0,1,0.,24.0,0.,24.0,0.,24.0,0.,24.0
1979-07-15 23:25:20.100 ,0,0,0.,24.0,0.,24.0,0.,24.0,0.,24.0
1979-07-15 23:25:44.100 ,1,1,0.,24.0,0.,24.0,0.,24.0,0.,24.0
1979-07-15 23:26:08.100 ,1,0,0.,24.0,0.,24.0,0.,24.0,0.,24.0
1979-07-15 23:26:32.100 ,2,1,0.,24.0,0.,24.0,0.,24.0,0.,24.0
1979-07-15 23:26:56.100 ,2,0,0.,24.0,0.,24.0,0.,24.0,0.,24.0
1979-07-15 23:27:20.100 ,3,1,0.,24.0,0.,24.0,0.,24.0,0.,24.0
1979-07-15 23:27:44.100 ,3,0,0.,24.0,0.,24.0,0.,24.0,0.,24.0
1979-07-15 23:28:08.100 ,4,1,0.,24.0,0.,24.0,0.,24.0,0.,24.0
1979-07-15 23:28:32.100 ,4,0,0.,24.0,0.,24.0,0.,24.0,0.,24.0
1979-07-15 23:28:56.100 ,5,1,0.,24.0,0.,24.0,0.,24.0,0.,24.0
1979-07-15 23:29:20.100 ,5,0,0.,24.0,0.,24.0,0.,24.0,0.,24.0
1979-07-15 23:29:44.100 ,6,1,0.,24.0,0.,24.0,0.,24.0,0.,24.0
1979-07-15 23:30:08.100 ,6,0,0.,24.0,0.,24.0,0.,24.0,0.,24.0
1979-07-15 23:30:32.100 ,7,0,0.,24.0,0.,24.0,0.,24.0,0.,24.0
1979-07-15 23:30:56.100 ,7,0,0.,24.0,0.,24.0,0.,24.0,0.,24.0
1979-07-15 23:31:20.100 ,5,1,0.,24.0,0.,24.0,0.,24.0,0.,24.0
1979-07-15 23:31:44.100 ,1,1,0.,24.0,0.,24.0,0.,24.0,0.,24.0
1979-07-15 23:32:08.100 ,2,1,0.,24.0,0.,24.0,0.,24.0,0.,24.0
1979-07-15 23:32:32.100 ,6,1,0.,24.0,0.,24.0,0.,24.0,0.,24.0
1979-07-15 23:32:56.100 ,5,1,0.,24.0,0.,24.0,0.,24.0,0.,24.0
1979-07-15 23:33:20.100 ,1,1,0.,24.0,0.,24.0,0.,24.0,0.,24.0
1979-07-15 23:33:44.100 ,2,1,0.,24.0,0.,24.0,0.,24.0,0.,24.0
1979-07-15 23:34:08.100 ,6,1,0.,24.0,0.,24.0,0.,24.0,0.,24.0
1979-07-15 23:34:32.100 ,5,1,0.,24.0,0.,24.0,0.,24.0,0.,24.0
1979-07-15 23:34:56.100 ,1,1,0.,24.0,0.,24.0,0.,24.0,0.,24.0
1979-07-15 23:35:20.100 ,2,1,0.,24.0,0.,24.0,0.,24.0,0.,24.0
1979-07-15 23:35:44.100 ,6,1,0.,24.0,0.,24.0,0.,24.0,0.,24.0
1979-07-15 23:36:08.100 ,5,1,0.,24.0,0.,24.0,0.,24.0,0.,24.0